MARY ISLAND AK US NWS current weather conditions

sailwx.info

Wind from 010 at 12 knots gusting 19

Air temperature -1.1° C
Dewpoint -3.1° C

Last reported at 2020-Jan-18 14:02 UTC.
Time now 2020-Jan-18 14:53 UTC

Location: N 55°06' W 131°11'.
View on Google Maps.

See reports from other nearby stations

  
Tides and Currents Weather Stations Pressure Air Temp Water Temp Dewpoint Dewpoint Depression Visibility Wind Speed Wind Dir Waves Ship Positions
date/time (UTC)wind fromknots sea level pressurealtimeterstation pressurevisibilityair tempwater tempwave heightnotes
2020-Jan-18 14:02 010 12 gusting 19 -1.1
2020-Jan-18 13:52 020 11 gusting 18 -1.6
2020-Jan-18 13:42 030 12 gusting 20 -1.7
2020-Jan-18 13:32 020 11 gusting 18 -1.6
2020-Jan-18 13:22 030 12 gusting 20 -1.7
2020-Jan-18 13:12 030 13 gusting 22 -1.7
2020-Jan-18 13:02 030 13 gusting 20 -1.7
2020-Jan-18 12:52 030 12 gusting 22 -1.6
2020-Jan-18 12:42 030 12 gusting 20 -1.6
2020-Jan-18 12:32 030 11 gusting 18 -1.9
2020-Jan-18 12:22 030 11 gusting 19 -2.0
2020-Jan-18 12:12 020 9 gusting 18 -2.1
2020-Jan-18 12:02 030 12 gusting 20 -2.2
2020-Jan-18 11:52 030 11 gusting 22 -2.1
2020-Jan-18 11:42 030 11 gusting 19 -2.2
2020-Jan-18 11:32 030 11 gusting 17 -2.4
2020-Jan-18 11:22 030 8 gusting 18 -2.4
2020-Jan-18 11:12 040 11 gusting 19 -2.1
2020-Jan-18 11:02 030 11 gusting 19 -2.0
2020-Jan-18 10:52 030 13 gusting 22 -1.8
2020-Jan-18 10:42 030 11 gusting 24 -1.1
2020-Jan-18 10:32 040 7 gusting 17 -1.1
2020-Jan-18 10:22 050 9 gusting 20 -0.8
2020-Jan-18 10:12 040 11 gusting 22 -0.6
2020-Jan-18 10:02 040 11 gusting 19 -0.6
2020-Jan-18 09:52 040 11 gusting 19 -0.8
2020-Jan-18 09:42 030 11 gusting 18 -1.0
2020-Jan-18 09:32 030 12 gusting 20 -1.2
2020-Jan-18 09:22 040 12 gusting 22 -1.2
2020-Jan-18 09:12 040 11 gusting 18 -1.6
2020-Jan-18 09:02 040 9 gusting 18 -1.6
2020-Jan-18 08:52 050 9 gusting 20 -1.7
2020-Jan-18 08:42 040 12 gusting 20 -1.7
2020-Jan-18 08:32 040 12 gusting 22 -1.8
2020-Jan-18 08:22 040 12 gusting 20 -1.8
2020-Jan-18 08:12 040 12 gusting 22 -1.7
2020-Jan-18 08:02 050 12 gusting 20 -1.8
2020-Jan-18 07:52 030 11 gusting 20 -1.8
2020-Jan-18 07:42 040 12 gusting 21 -1.8
2020-Jan-18 07:32 040 13 gusting 26 -1.8
2020-Jan-18 07:22 050 12 gusting 24 -1.9
2020-Jan-18 07:12 040 13 gusting 21 -1.7
2020-Jan-18 07:02 030 13 gusting 21 -1.8
2020-Jan-18 06:52 030 12 gusting 20 -1.7
2020-Jan-18 06:42 040 11 gusting 20 -1.7
2020-Jan-18 06:32 040 11 gusting 20 -1.7
2020-Jan-18 06:22 040 11 gusting 19 -1.7
2020-Jan-18 06:12 030 9 gusting 20 -1.7
2020-Jan-18 06:02 040 9 gusting 19 -1.6
2020-Jan-18 05:52 020 9 gusting 18 -1.7
2020-Jan-18 05:42 040 9 gusting 20 -1.8
2020-Jan-18 05:32 020 9 gusting 19 -2.0
2020-Jan-18 05:22 030 11 gusting 18 -2.0
2020-Jan-18 05:12 030 9 gusting 19 -1.9
2020-Jan-18 05:02 030 9 gusting 20 -2.0
2020-Jan-18 04:52 020 11 gusting 20 -1.8
2020-Jan-18 04:42 040 11 gusting 20 -1.9
2020-Jan-18 04:32 030 12 gusting 20 -1.9
2020-Jan-18 04:22 030 11 gusting 20 -1.8
2020-Jan-18 04:12 040 11 gusting 20 -1.7
2020-Jan-18 04:02 030 9 gusting 18 -1.8
2020-Jan-18 03:52 030 9 gusting 19 -1.8
2020-Jan-18 03:42 040 9 gusting 18 -1.8
2020-Jan-18 03:32 030 9 gusting 14 -1.6
2020-Jan-18 03:22 040 9 gusting 19 -1.6
2020-Jan-18 03:12 050 9 gusting 18 -1.6
2020-Jan-18 03:02 040 9 gusting 18 -1.6
2020-Jan-18 02:52 030 11 gusting 20 -1.6
2020-Jan-18 02:42 020 9 gusting 17 -1.6
2020-Jan-18 02:32 030 12 gusting 19 -1.6
2020-Jan-18 02:22 030 11 gusting 19 -1.7
2020-Jan-18 02:12 030 11 gusting 19 -1.6
2020-Jan-18 02:02 040 8 gusting 17 -1.6
2020-Jan-18 01:52 040 11 gusting 18 -1.6
2020-Jan-18 01:42 040 8 gusting 17 -1.7
2020-Jan-18 01:32 050 9 gusting 17 -1.7
2020-Jan-18 01:22 050 9 gusting 18 -1.6
2020-Jan-18 01:12 040 8 gusting 21 -1.7
2020-Jan-18 01:02 040 8 gusting 15 -1.7
2020-Jan-18 00:52 040 8 gusting 17 -2.0
2020-Jan-18 00:42 040 9 gusting 18 -1.8
2020-Jan-18 00:32 040 9 gusting 17 -1.9
2020-Jan-18 00:22 040 8 gusting 15 -2.0
2020-Jan-18 00:12 040 8 gusting 17 -1.8
2020-Jan-17 23:52 040 8 gusting 14 -1.8
2020-Jan-17 23:42 050 8 gusting 15 -1.9
2020-Jan-17 23:32 050 8 gusting 15 -1.8
2020-Jan-17 23:22 040 8 gusting 17 -2.0
2020-Jan-17 23:12 050 8 gusting 14 -2.0
2020-Jan-17 23:02 050 6 gusting 13 -2.0
2020-Jan-17 22:52 050 7 gusting 13 -2.0
2020-Jan-17 22:42 040 7 gusting 17 -2.2
2020-Jan-17 22:32 040 8 gusting 13 -2.2
2020-Jan-17 22:22 040 7 gusting 13 -2.2
2020-Jan-17 22:12 040 6 gusting 12 -2.2
2020-Jan-17 22:02 040 6 gusting 13 -2.3
2020-Jan-17 21:52 050 6 gusting 11 -2.4
2020-Jan-17 21:42 050 6 gusting 13 -2.3
2020-Jan-17 21:32 050 6 gusting 13 -2.5
2020-Jan-17 21:22 040 7 gusting 13 -2.4
2020-Jan-17 21:12 040 7 gusting 14 -2.4
2020-Jan-17 21:02 050 7 gusting 14 -2.6
2020-Jan-17 20:52 050 7 gusting 14 -2.7
2020-Jan-17 20:42 040 7 gusting 13 -2.7
2020-Jan-17 20:32 050 7 gusting 13 -2.8
2020-Jan-17 20:22 050 8 gusting 13 -2.9
2020-Jan-17 20:12 050 6 gusting 13 -3.0
2020-Jan-17 20:02 060 6 gusting 13 -2.9
2020-Jan-17 19:52 050 7 gusting 13 -2.9
2020-Jan-17 19:42 040 7 gusting 13 -3.3
2020-Jan-17 19:32 040 7 gusting 13 -3.3
2020-Jan-17 19:22 050 7 gusting 13 -3.3
2020-Jan-17 19:12 050 7 gusting 14 -3.2
2020-Jan-17 19:02 040 6 gusting 13 -3.0
2020-Jan-17 18:52 020 5 gusting 12 -3.3
2020-Jan-17 18:42 010 7 gusting 13 -3.2
2020-Jan-17 18:32 030 7 gusting 12 -3.1
2020-Jan-17 18:22 020 7 gusting 13 -3.3
2020-Jan-17 18:12 030 6 gusting 12 -3.4
2020-Jan-17 18:02 020 7 gusting 13 -3.6
2020-Jan-17 17:52 020 6 gusting 13 -3.7
2020-Jan-17 17:42 030 6 gusting 13 -3.8
2020-Jan-17 17:32 030 7 gusting 14 -3.7
2020-Jan-17 17:22 040 6 gusting 12 -3.9
2020-Jan-17 17:12 040 7 gusting 13 -3.9
2020-Jan-17 17:02 040 7 gusting 13 -3.8
2020-Jan-17 16:52 060 6 gusting 13 -3.8
2020-Jan-17 16:42 060 6 gusting 12 -4.0
2020-Jan-17 16:32 060 6 gusting 12 -4.0
2020-Jan-17 16:22 060 6 gusting 13 -4.0
2020-Jan-17 16:12 050 6 gusting 11 -4.2
2020-Jan-17 16:02 070 6 gusting 13 -4.1
2020-Jan-17 15:52 070 6 gusting 13 -4.2
2020-Jan-17 15:42 070 6 gusting 14 -4.2
2020-Jan-17 15:32 070 6 gusting 13 -4.2
2020-Jan-17 15:22 060 6 gusting 13 -4.1
2020-Jan-17 15:12 060 6 gusting 13 -4.2
2020-Jan-17 15:02 060 6 gusting 9 -4.3
2020-Jan-17 14:52 050 6 gusting 12 -4.4
2020-Jan-17 14:42 050 6 gusting 12 -4.3
2020-Jan-17 14:32 050 6 gusting 11 -4.3
2020-Jan-17 14:22 050 6 gusting 13 -4.3
2020-Jan-17 14:12 040 6 gusting 11 -4.3
2020-Jan-17 14:02 040 5 gusting 8 -4.4
2020-Jan-17 13:52 040 5 gusting 9 -4.4
2020-Jan-17 13:42 050 6 gusting 9 -4.6
2020-Jan-17 13:32 050 6 gusting 12 -4.8
2020-Jan-17 13:22 050 6 gusting 11 -4.7
2020-Jan-17 13:12 050 7 gusting 13 -4.7
2020-Jan-17 13:02 050 8 gusting 13 -4.6
2020-Jan-17 12:52 040 6 gusting 13 -4.7
2020-Jan-17 12:42 050 6 gusting 12 -4.9
2020-Jan-17 12:32 050 6 gusting 13 -4.9
2020-Jan-17 12:22 040 7 gusting 13 -4.8
2020-Jan-17 12:12 040 6 gusting 13 -4.9
2020-Jan-17 12:02 050 6 gusting 12 -4.9
2020-Jan-17 11:52 050 6 gusting 12 -5.0
2020-Jan-17 11:42 050 6 gusting 12 -4.9
2020-Jan-17 11:32 050 6 gusting 13 -4.9
2020-Jan-17 11:22 030 6 gusting 13 -5.0
2020-Jan-17 11:12 040 7 gusting 13 -4.9
2020-Jan-17 11:02 030 7 gusting 13 -5.1
2020-Jan-17 10:52 040 7 gusting 13 -5.2
2020-Jan-17 10:42 020 7 gusting 13 -5.1
2020-Jan-17 10:32 040 7 gusting 13 -5.1
2020-Jan-17 10:22 040 8 gusting 15 -5.0
2020-Jan-17 10:12 040 8 gusting 13 -5.0
2020-Jan-17 10:02 060 6 gusting 13 -5.0
2020-Jan-17 09:52 360 1 gusting 5 -5.5
2020-Jan-17 09:42 060 2 gusting 7 -5.5
2020-Jan-17 09:32 030 6 gusting 11 -5.4
2020-Jan-17 09:22 040 6 gusting 13 -5.4
2020-Jan-17 09:12 040 8 gusting 14 -5.3
2020-Jan-17 09:02 040 9 gusting 15 -5.2
2020-Jan-17 08:52 030 8 gusting 15 -5.2
2020-Jan-17 08:42 010 9 gusting 15 -5.5
2020-Jan-17 08:32 020 8 gusting 14 -5.6
2020-Jan-17 08:22 030 7 gusting 13 -5.6
2020-Jan-17 08:12 030 8 gusting 14 -5.7
2020-Jan-17 08:02 040 7 gusting 12 -5.6
2020-Jan-17 07:52 040 6 gusting 12 -5.6
2020-Jan-17 07:42 030 6 gusting 13 -5.8
2020-Jan-17 07:32 030 6 gusting 13 -5.9
2020-Jan-17 07:22 040 6 gusting 13 -5.9
2020-Jan-17 07:12 040 6 gusting 13 -5.9
2020-Jan-17 07:02 060 6 gusting 14 -5.9
2020-Jan-17 06:52 060 6 gusting 14 -5.9
2020-Jan-17 06:42 060 6 gusting 12 -5.9
2020-Jan-17 06:32 060 6 gusting 12 -5.8
2020-Jan-17 06:22 060 6 gusting 14 -5.8
2020-Jan-17 06:12 050 6 gusting 13 -5.9
2020-Jan-17 06:02 050 6 gusting 15 -5.9
2020-Jan-17 05:52 060 7 gusting 15 -6.0
2020-Jan-17 05:42 050 7 gusting 17 -6.0
2020-Jan-17 05:32 040 7 gusting 15 -6.0
2020-Jan-17 05:22 040 6 gusting 13 -6.0
2020-Jan-17 05:12 040 6 gusting 12 -6.1
2020-Jan-17 05:02 040 6 gusting 13 -6.0
2020-Jan-17 04:52 040 6 gusting 13 -6.1
2020-Jan-17 04:42 050 6 gusting 13 -6.2
2020-Jan-17 04:32 050 6 gusting 12 -6.2
2020-Jan-17 04:22 050 6 gusting 14 -6.1
2020-Jan-17 04:12 060 6 gusting 13 -6.1
2020-Jan-17 04:02 050 7 gusting 15 -6.1
2020-Jan-17 03:52 040 6 gusting 13 -6.2
2020-Jan-17 03:42 050 7 gusting 13 -6.2
2020-Jan-17 03:32 060 6 gusting 13 -6.1
2020-Jan-17 03:22 050 7 gusting 13 -6.2
2020-Jan-17 03:12 050 7 gusting 14 -6.1
2020-Jan-17 03:02 050 7 gusting 13 -6.0
2020-Jan-17 02:52 050 7 gusting 13 -6.1
2020-Jan-17 02:42 040 6 gusting 11 -6.3
2020-Jan-17 02:32 050 7 gusting 13 -6.3
2020-Jan-17 02:22 030 6 gusting 14 -6.3
2020-Jan-17 02:12 040 7 gusting 13 -6.2
2020-Jan-17 02:02 060 6 gusting 13 -6.3
2020-Jan-17 01:52 040 6 gusting 13 -6.3
2020-Jan-17 01:42 040 6 gusting 15 -6.3
2020-Jan-17 01:32 040 6 gusting 13 -6.3
2020-Jan-17 01:22 040 7 gusting 13 -6.2
2020-Jan-17 01:12 050 6 gusting 13 -6.1
2020-Jan-17 01:02 060 6 gusting 12 -6.2
2020-Jan-17 00:52 040 7 gusting 13 -6.3
2020-Jan-17 00:42 060 6 gusting 13 -6.2
2020-Jan-17 00:32 050 7 gusting 15 -5.9
2020-Jan-17 00:22 070 7 gusting 18 -5.8
2020-Jan-17 00:12 040 8 gusting 17 -5.9
2020-Jan-16 23:52 070 6 gusting 20 -5.6
2020-Jan-16 23:42 040 7 gusting 13 -5.7
2020-Jan-16 23:32 050 6 gusting 12 -5.8
2020-Jan-16 23:22 050 7 gusting 15 -5.7
2020-Jan-16 23:12 050 6 gusting 13 -5.6
2020-Jan-16 23:02 050 6 gusting 13 -5.6
2020-Jan-16 22:52 050 7 gusting 19 -5.4
2020-Jan-16 22:42 070 7 gusting 14 -5.5
2020-Jan-16 22:32 070 7 gusting 17 -5.5
2020-Jan-16 22:22 060 6 gusting 13 -5.6
2020-Jan-16 22:12 080 6 gusting 12 -5.6
2020-Jan-16 22:02 060 5 gusting 11 -5.6
2020-Jan-16 21:52 060 6 gusting 14 -5.7
2020-Jan-16 21:42 060 6 gusting 15 -5.6
2020-Jan-16 21:32 070 7 gusting 13 -5.7
2020-Jan-16 21:22 060 7 gusting 15 -5.7
2020-Jan-16 21:12 070 7 gusting 15 -5.5
2020-Jan-16 21:02 060 7 gusting 15 -5.5
2020-Jan-16 20:52 060 6 gusting 14 -5.7
2020-Jan-16 20:42 080 7 gusting 14 -5.6
2020-Jan-16 20:32 090 9 gusting 15 -5.7
2020-Jan-16 20:22 100 13 gusting 24 -5.5
2020-Jan-16 20:12 100 14 gusting 24 -5.3
2020-Jan-16 20:02 100 13 gusting 21 -5.4
2020-Jan-16 19:02 110 11 gusting 15 -5.3
2020-Jan-16 18:52 100 11 gusting 21 -5.3
2020-Jan-16 18:42 080 7 gusting 15 -5.6
2020-Jan-16 18:32 070 6 gusting 18 -5.5
2020-Jan-16 18:22 090 7 gusting 15 -5.4
2020-Jan-16 18:12 080 7 gusting 15 -5.4
2020-Jan-16 18:02 050 7 gusting 15 -5.4
2020-Jan-16 17:52 070 6 gusting 12 -5.4
2020-Jan-16 17:42 070 6 gusting 13 -5.5
2020-Jan-16 17:32 050 7 gusting 17 -5.5
2020-Jan-16 17:22 060 8 gusting 17 -5.5
2020-Jan-16 17:12 050 8 gusting 18 -5.5
2020-Jan-16 17:02 080 8 gusting 18 -5.7
2020-Jan-16 16:52 070 6 gusting 13 -5.7
2020-Jan-16 16:42 080 7 gusting 14 -5.9
2020-Jan-16 16:32 060 6 gusting 13 -5.8
2020-Jan-16 16:22 060 7 gusting 17 -5.8
2020-Jan-16 16:12 040 8 gusting 14 -5.9
2020-Jan-16 16:02 060 7 gusting 15 -6.0
2020-Jan-16 15:52 060 7 gusting 19 -6.0
2020-Jan-16 15:42 050 8 gusting 17 -6.1
2020-Jan-16 15:32 050 6 gusting 13 -6.2
2020-Jan-16 15:22 060 6 gusting 13 -6.2
2020-Jan-16 15:12 070 7 gusting 15 -6.3
2020-Jan-16 15:02 040 7 gusting 17 -6.3
2020-Jan-16 14:52 030 7 gusting 18 -6.5
2020-Jan-16 14:42 040 7 gusting 15 -6.4
2020-Jan-16 14:32 050 7 gusting 17 -6.6
2020-Jan-16 14:22 040 8 gusting 19 -6.4
2020-Jan-16 14:12 040 11 gusting 19 -6.5
2020-Jan-16 14:02 040 9 gusting 19 -6.5